Location: USNO
(38.9242°N, 77.0663°W)
Time: 05:32:11
(UTC-05:00)

Vanguard 1 - All Passes

Search period start: 12 December 2017 00:00
Search period end: 22 December 2017 00:00
Orbit: 650 x 3833 km, 34.2° (Epoch: 10 December)

Date Brightness Start Highest point End Pass type
(mag) Time Alt. Az. Time Alt. Az. Time Alt. Az.
12 Dec - 05:23:50 10° SSE 05:33:28 14° SE 05:42:26 10° ESE visible
12 Dec - 07:37:30 10° SSW 07:57:37 39° SSE 08:12:11 10° E daylight
12 Dec - 10:01:25 10° WSW 10:22:06 64° SSE 10:33:59 10° E daylight
12 Dec - 12:29:03 10° W 12:45:20 70° S 12:53:49 10° ESE daylight
12 Dec - 14:56:13 10° W 15:06:11 39° SSW 15:12:04 10° SE daylight
13 Dec - 05:40:00 10° S 05:54:29 21° SE 06:07:24 10° E visible
13 Dec - 07:57:37 10° SW 08:18:51 47° SSE 08:33:42 10° E daylight
13 Dec - 10:22:50 10° WSW 10:43:26 69° S 10:54:59 10° E daylight
13 Dec - 12:50:48 10° W 13:06:27 67° SSW 13:14:39 10° ESE daylight
13 Dec - 15:18:03 10° W 15:26:44 30° SW 15:32:14 10° SSE daylight
14 Dec - 05:58:06 10° S 06:15:29 27° SE 06:30:33 10° E visible
14 Dec - 08:18:09 10° SW 08:40:10 54° SSE 08:55:01 10° E daylight
14 Dec - 10:44:25 10° WSW 11:04:46 73° S 11:15:59 10° E daylight
14 Dec - 13:12:33 10° W 13:27:27 61° SSW 13:35:22 10° ESE daylight
14 Dec - 15:40:10 10° W 15:47:08 21° SW 15:51:59 10° S daylight
15 Dec - 06:17:10 10° SSW 06:36:33 35° SE 06:52:51 10° E visible
15 Dec - 08:39:02 10° SW 09:01:31 61° SSE 09:16:13 10° E daylight
15 Dec - 11:06:08 10° W 11:26:05 74° S 11:36:55 10° E daylight
15 Dec - 13:34:19 10° W 13:48:22 52° SSW 13:55:59 10° SE daylight
15 Dec - 16:03:01 10° WSW 16:07:24 14° SW 16:10:55 10° SSW daylight
16 Dec - 04:23:14 10° SSE 04:33:48 15° SE 04:44:13 10° ESE visible
16 Dec - 06:36:50 10° SSW 06:57:40 42° SE 07:14:42 10° E visible
16 Dec - 09:00:12 10° WSW 09:22:55 67° SSE 09:37:21 10° E daylight
16 Dec - 11:27:56 10° W 11:47:23 73° S 11:57:51 10° ESE daylight
16 Dec - 13:56:07 10° W 14:09:05 43° SSW 14:16:25 10° SE daylight
17 Dec - 04:39:51 10° S 04:54:35 22° SE 05:08:59 10° E visible
17 Dec - 06:57:00 10° SW 07:18:51 50° SSE 07:36:16 10° E daylight
17 Dec - 09:21:35 10° WSW 09:44:21 72° S 09:58:26 10° E daylight
17 Dec - 11:49:44 10° W 12:08:36 69° SSW 12:18:42 10° ESE daylight
17 Dec - 14:18:02 10° W 14:29:39 34° SW 14:36:35 10° SSE daylight
18 Dec - 04:58:08 10° S 05:15:23 29° SE 05:32:09 10° E visible
18 Dec - 07:17:31 10° SW 07:40:08 57° SSE 07:57:39 10° E daylight
18 Dec - 09:43:10 10° WSW 10:05:48 75° S 10:19:30 10° E daylight
18 Dec - 12:11:34 10° W 12:29:41 64° SSW 12:39:27 10° ESE daylight
18 Dec - 14:40:12 10° W 14:50:03 26° SW 14:56:24 10° S daylight
19 Dec - 05:17:18 10° SSW 05:36:16 36° SE 05:54:30 10° E visible
19 Dec - 07:38:22 10° SW 08:01:31 64° SSE 08:18:56 10° E daylight
19 Dec - 10:04:52 10° W 10:27:15 76° S 10:40:31 10° E daylight
19 Dec - 12:33:24 10° W 12:50:39 56° SSW 13:00:05 10° SE daylight
19 Dec - 15:02:53 10° W 15:10:18 18° SW 15:15:39 10° S daylight
20 Dec - 03:23:55 10° SSE 03:34:02 15° SE 03:44:41 10° E visible
20 Dec - 05:37:01 10° SSW 05:57:15 44° SE 06:16:26 10° E visible
20 Dec - 07:59:29 10° WSW 08:22:58 69° SSE 08:40:10 10° E daylight
20 Dec - 10:26:38 10° W 10:48:40 75° S 11:01:30 10° ESE daylight
20 Dec - 12:55:17 10° W 13:11:27 47° SSW 13:20:31 10° SE daylight
20 Dec - 15:27:07 10° WSW 15:30:26 12° SW 15:33:17 10° SW daylight
21 Dec - 03:40:43 10° S 03:54:34 22° SE 04:09:34 10° E visible
21 Dec - 05:57:10 10° SW 06:18:21 51° SSE 06:38:05 10° E visible
21 Dec - 08:20:49 10° WSW 08:44:30 74° S 09:01:21 10° E daylight
21 Dec - 10:48:27 10° W 11:09:59 71° SSW 11:22:24 10° ESE daylight
21 Dec - 13:17:15 10° W 13:32:03 39° SW 13:40:44 10° SSE daylight
